Time,TemperatureF,DewpointF,PressureIn,WindDirection,WindDirectionDegrees,WindSpeedMPH,WindSpeedGustMPH,Humidity,HourlyPrecipIn,Conditions,Clouds,dailyrainin,SolarRadiationWatts/m^2,SoftwareType,DateUTC
2013-09-22 00:02:00,-999.0,-99.9,-100.00,SSE,157,3.0,-999.0,-999,-99.99,,,-99.99,0.000000,,2013-09-22 04:02:00,
2013-09-22 00:14:00,77.0,71.0,-100.00,SSE,157,3.0,-999.0,79,0.00,,,-99.99,0.000000,,2013-09-22 04:14:00,
2013-09-22 00:23:00,77.0,71.0,-100.00,SSE,156,4.0,-999.0,80,0.00,,,-99.99,0.000000,,2013-09-22 04:23:00,
2013-09-22 00:44:00,76.0,70.0,-100.00,SSE,167,3.0,-999.0,81,0.00,,,-99.99,0.000000,,2013-09-22 04:44:00,
2013-09-22 00:54:00,76.0,70.0,-100.00,SSE,158,3.0,-999.0,82,0.00,,,-99.99,0.000000,,2013-09-22 04:54:00,
2013-09-22 01:13:00,76.0,70.0,-100.00,SSE,160,3.0,-999.0,83,0.00,,,-99.99,0.000000,,2013-09-22 05:13:00,
2013-09-22 01:23:00,76.0,71.0,-100.00,SSE,155,4.0,-999.0,83,0.00,,,-99.99,0.000000,,2013-09-22 05:23:00,
2013-09-22 01:43:00,76.0,71.0,-100.00,SSE,153,3.0,-999.0,83,0.00,,,-99.99,0.000000,,2013-09-22 05:43:00,
2013-09-22 01:53:00,76.0,71.0,-100.00,SSE,154,3.0,-999.0,84,0.00,,,-99.99,0.000000,,2013-09-22 05:53:00,
2013-09-22 02:12:00,76.0,71.0,-100.00,SSE,160,4.0,-999.0,83,0.00,,,-99.99,0.000000,,2013-09-22 06:12:00,
2013-09-22 02:22:00,76.0,71.0,-100.00,SSE,161,5.0,-999.0,83,0.00,,,-99.99,0.000000,,2013-09-22 06:22:00,
2013-09-22 02:42:00,76.0,71.0,-100.00,SSE,161,5.0,-999.0,83,0.00,,,-99.99,0.000000,,2013-09-22 06:42:00,
2013-09-22 02:52:00,76.0,71.0,-100.00,SSE,160,5.0,-999.0,84,0.00,,,-99.99,0.000000,,2013-09-22 06:52:00,
2013-09-22 03:11:00,76.0,71.0,-100.00,SSE,165,5.0,-999.0,84,0.00,,,-99.99,0.000000,,2013-09-22 07:11:00,
2013-09-22 03:22:00,76.0,71.0,-100.00,SSE,159,3.0,-999.0,85,0.00,,,-99.99,0.000000,,2013-09-22 07:22:00,
2013-09-22 03:42:00,76.0,71.0,-100.00,SSE,155,2.0,-999.0,86,0.00,,,-99.99,0.000000,,2013-09-22 07:42:00,
2013-09-22 03:52:00,76.0,71.0,-100.00,SE,143,2.0,-999.0,86,0.00,,,-99.99,0.000000,,2013-09-22 07:52:00,
2013-09-22 04:12:00,76.0,71.0,-100.00,SE,140,4.0,-999.0,86,0.00,,,-99.99,0.000000,,2013-09-22 08:12:00,
2013-09-22 04:22:00,76.0,71.0,-100.00,SE,139,3.0,-999.0,86,0.00,,,-99.99,0.000000,,2013-09-22 08:22:00,
2013-09-22 04:42:00,76.0,72.0,-100.00,SSE,151,4.0,-999.0,87,0.00,,,-99.99,0.000000,,2013-09-22 08:42:00,
2013-09-22 04:52:00,75.0,72.0,-100.00,SSE,153,4.0,-999.0,88,0.00,,,-99.99,0.000000,,2013-09-22 08:52:00,
2013-09-22 05:11:00,75.0,72.0,-100.00,South,174,3.0,-999.0,89,0.00,,,-99.99,0.000000,,2013-09-22 09:11:00,
2013-09-22 05:22:00,75.0,72.0,-100.00,SSE,159,3.0,-999.0,90,0.00,,,-99.99,0.000000,,2013-09-22 09:22:00,
2013-09-22 05:43:00,75.0,72.0,-100.00,SSE,149,2.0,-999.0,90,0.00,,,-99.99,0.000000,,2013-09-22 09:43:00,
2013-09-22 05:54:00,75.0,72.0,-100.00,SSE,148,2.0,-999.0,91,0.00,,,-99.99,0.000000,,2013-09-22 09:54:00,
2013-09-22 06:12:00,75.0,72.0,-100.00,South,171,2.0,-999.0,91,0.00,,,-99.99,0.000000,,2013-09-22 10:12:00,
2013-09-22 06:23:00,75.0,72.0,-100.00,SSE,167,2.0,-999.0,92,0.00,,,-99.99,0.000000,,2013-09-22 10:23:00,
2013-09-22 06:44:00,75.0,72.0,-100.00,South,180,3.0,-999.0,92,0.00,,,-99.99,0.000000,,2013-09-22 10:44:00,
2013-09-22 06:53:00,75.0,73.0,-100.00,South,172,3.0,-999.0,92,0.00,,,-99.99,0.000000,,2013-09-22 10:53:00,
2013-09-22 07:12:00,75.0,73.0,-100.00,SSE,164,3.0,-999.0,92,0.00,,,-99.99,0.000000,,2013-09-22 11:12:00,
2013-09-22 07:22:00,75.0,73.0,-100.00,South,174,2.0,-999.0,93,0.00,,,-99.99,0.000000,,2013-09-22 11:22:00,
2013-09-22 07:42:00,75.0,73.0,-100.00,SW,227,2.0,-999.0,93,0.00,,,-99.99,0.600000,,2013-09-22 11:42:00,
2013-09-22 07:52:00,75.0,73.0,-100.00,WNW,283,3.0,-999.0,93,0.00,,,-99.99,3.600000,,2013-09-22 11:52:00,
2013-09-22 08:12:00,75.0,73.0,-100.00,West,274,4.0,-999.0,93,0.03,,,-99.99,5.300000,,2013-09-22 12:12:00,
2013-09-22 08:22:00,75.0,73.0,-100.00,WNW,296,1.0,-999.0,94,0.08,,,-99.99,32.799999,,2013-09-22 12:22:00,
2013-09-22 08:42:00,75.0,74.0,-100.00,SSW,198,2.0,-999.0,95,0.00,,,-99.99,72.699997,,2013-09-22 12:42:00,
2013-09-22 08:52:00,75.0,74.0,-100.00,South,171,4.0,-999.0,96,0.00,,,-99.99,43.500000,,2013-09-22 12:52:00,
2013-09-22 09:12:00,75.0,74.0,-100.00,South,180,4.0,-999.0,96,0.00,,,-99.99,55.900002,,2013-09-22 13:12:00,
2013-09-22 09:22:00,76.0,75.0,-100.00,South,176,4.0,-999.0,96,0.00,,,-99.99,107.000000,,2013-09-22 13:22:00,
2013-09-22 09:42:00,76.0,75.0,-100.00,South,190,4.0,-999.0,95,0.00,,,-99.99,160.600006,,2013-09-22 13:42:00,
2013-09-22 09:52:00,77.0,75.0,-100.00,SSW,200,6.0,-999.0,94,0.00,,,-99.99,156.199997,,2013-09-22 13:52:00,
2013-09-22 10:11:00,78.0,76.0,-100.00,SSW,192,5.0,-999.0,93,0.00,,,-99.99,223.199997,,2013-09-22 14:11:00,
2013-09-22 10:22:00,79.0,76.0,-100.00,SSW,192,5.0,-999.0,90,0.00,,,-99.99,422.399994,,2013-09-22 14:22:00,
2013-09-22 10:42:00,81.0,76.0,-100.00,SSW,194,5.0,-999.0,85,0.00,,,-99.99,460.799988,,2013-09-22 14:42:00,
2013-09-22 10:52:00,82.0,75.0,-100.00,SSW,201,7.0,-999.0,80,0.00,,,-99.99,524.599976,,2013-09-22 14:52:00,
2013-09-22 11:12:00,83.0,76.0,-100.00,SSW,211,6.0,-999.0,77,0.00,,,-99.99,571.900024,,2013-09-22 15:12:00,
2013-09-22 11:23:00,84.0,76.0,-100.00,SSW,202,6.0,-999.0,75,0.00,,,-99.99,590.700012,,2013-09-22 15:23:00,
2013-09-22 11:44:00,85.0,75.0,-100.00,SW,218,8.0,-999.0,74,0.00,,,-99.99,655.500000,,2013-09-22 15:44:00,
2013-09-22 11:55:00,85.0,75.0,-100.00,SW,215,9.0,-999.0,72,0.00,,,-99.99,682.900024,,2013-09-22 15:55:00,
2013-09-22 12:13:00,86.0,75.0,-100.00,SW,221,11.0,-999.0,70,0.00,,,-99.99,697.299988,,2013-09-22 16:13:00,
2013-09-22 12:24:00,87.0,75.0,-100.00,SW,218,10.0,-999.0,68,0.00,,,-99.99,818.000000,,2013-09-22 16:24:00,
2013-09-22 12:43:00,87.0,75.0,-100.00,SW,219,11.0,-999.0,66,0.00,,,-99.99,926.000000,,2013-09-22 16:43:00,
2013-09-22 12:54:00,88.0,75.0,-100.00,SSW,212,10.0,-999.0,65,0.00,,,-99.99,851.000000,,2013-09-22 16:54:00,
2013-09-22 13:12:00,89.0,75.0,-100.00,SW,214,10.0,-999.0,64,0.00,,,-99.99,885.000000,,2013-09-22 17:12:00,
2013-09-22 13:23:00,89.0,75.0,-100.00,SSW,206,10.0,-999.0,62,0.00,,,-99.99,873.000000,,2013-09-22 17:23:00,
2013-09-22 13:43:00,89.0,75.0,-100.00,SW,218,10.0,-999.0,62,0.00,,,-99.99,811.000000,,2013-09-22 17:43:00,
2013-09-22 13:53:00,89.0,74.0,-100.00,SSW,212,10.0,-999.0,62,0.00,,,-99.99,665.200012,,2013-09-22 17:53:00,
2013-09-22 14:13:00,88.0,74.0,-100.00,SW,216,8.0,-999.0,64,0.00,,,-99.99,388.299988,,2013-09-22 18:13:00,
2013-09-22 14:22:00,89.0,75.0,-100.00,SW,214,8.0,-999.0,62,0.00,,,-99.99,553.400024,,2013-09-22 18:22:00,
2013-09-22 14:42:00,87.0,74.0,-100.00,SW,232,7.0,-999.0,64,0.00,,,-99.99,211.500000,,2013-09-22 18:42:00,
2013-09-22 14:52:00,84.0,73.0,-100.00,WNW,290,7.0,-999.0,70,0.11,,,-99.99,49.200001,,2013-09-22 18:52:00,
2013-09-22 15:42:00,76.0,74.0,-100.00,WNW,296,4.0,-999.0,93,0.03,,,-99.99,298.799988,,2013-09-22 19:42:00,
2013-09-22 15:53:00,78.0,76.0,-100.00,WSW,249,3.0,-999.0,93,0.00,,,-99.99,381.500000,,2013-09-22 19:53:00,
2013-09-22 16:12:00,79.0,76.0,-100.00,West,261,3.0,-999.0,91,0.00,,,-99.99,288.200012,,2013-09-22 20:12:00,
2013-09-22 16:22:00,79.0,76.0,-100.00,West,263,4.0,-999.0,89,0.00,,,-99.99,223.899994,,2013-09-22 20:22:00,
2013-09-22 16:42:00,80.0,76.0,-100.00,West,270,3.0,-999.0,88,0.00,,,-99.99,172.500000,,2013-09-22 20:42:00,
2013-09-22 16:52:00,80.0,75.0,-100.00,West,259,2.0,-999.0,87,0.00,,,-99.99,117.099998,,2013-09-22 20:52:00,
2013-09-22 17:12:00,79.0,76.0,-100.00,West,278,2.0,-999.0,88,0.00,,,-99.99,108.699997,,2013-09-22 21:12:00,
2013-09-22 17:23:00,80.0,76.0,-100.00,West,266,2.0,-999.0,87,0.00,,,-99.99,73.300003,,2013-09-22 21:23:00,
2013-09-22 17:45:00,79.0,76.0,-100.00,WSW,258,2.0,-999.0,88,0.00,,,-99.99,40.299999,,2013-09-22 21:45:00,
2013-09-22 17:54:00,78.0,75.0,-100.00,WSW,248,3.0,-999.0,90,0.52,,,-99.99,28.400000,,2013-09-22 21:54:00,
2013-09-22 18:14:00,78.0,76.0,-100.00,SSW,207,2.0,-999.0,93,0.00,,,-99.99,81.900002,,2013-09-22 22:14:00,
2013-09-22 18:24:00,78.0,77.0,-100.00,NW,310,1.0,-999.0,93,0.00,,,-99.99,107.699997,,2013-09-22 22:24:00,
2013-09-22 18:43:00,79.0,77.0,-100.00,NE,38,1.0,-999.0,93,0.00,,,-99.99,96.900002,,2013-09-22 22:43:00,
2013-09-22 18:54:00,79.0,77.0,-100.00,East,90,1.0,-999.0,93,0.00,,,-99.99,69.300003,,2013-09-22 22:54:00,
2013-09-22 19:12:00,79.0,77.0,-100.00,SE,134,2.0,-999.0,93,0.00,,,-99.99,55.099998,,2013-09-22 23:12:00,
2013-09-22 19:22:00,79.0,77.0,-100.00,South,189,2.0,-999.0,94,0.00,,,-99.99,27.000000,,2013-09-22 23:22:00,
2013-09-22 19:43:00,78.0,77.0,-100.00,SSE,157,1.0,-999.0,95,0.00,,,-99.99,10.700000,,2013-09-22 23:43:00,
2013-09-22 19:52:00,78.0,76.0,-100.00,SW,218,1.0,-999.0,95,0.00,,,-99.99,1.500000,,2013-09-22 23:52:00,
2013-09-22 20:12:00,78.0,77.0,-100.00,ESE,108,1.0,-999.0,96,0.00,,,-99.99,0.100000,,2013-09-23 00:12:00,
2013-09-22 20:23:00,78.0,77.0,-100.00,SE,142,2.0,-999.0,96,0.00,,,-99.99,0.000000,,2013-09-23 00:23:00,
2013-09-22 20:42:00,78.0,77.0,-100.00,ENE,62,2.0,-999.0,97,0.00,,,-99.99,0.000000,,2013-09-23 00:42:00,
2013-09-22 20:53:00,77.0,76.0,-100.00,NNW,336,2.0,-999.0,97,0.00,,,-99.99,0.000000,,2013-09-23 00:53:00,
2013-09-22 21:12:00,77.0,76.0,-100.00,North,9,1.0,-999.0,97,0.00,,,-99.99,0.000000,,2013-09-23 01:12:00,
2013-09-22 21:22:00,77.0,76.0,-100.00,SW,229,1.0,-999.0,97,0.00,,,-99.99,0.000000,,2013-09-23 01:22:00,
2013-09-22 21:43:00,76.0,76.0,-100.00,NNE,12,1.0,-999.0,98,0.00,,,-99.99,0.000000,,2013-09-23 01:43:00,
2013-09-22 21:52:00,77.0,76.0,-100.00,NE,53,1.0,-999.0,98,0.00,,,-99.99,0.000000,,2013-09-23 01:52:00,
2013-09-22 22:11:00,77.0,76.0,-100.00,SE,143,1.0,-999.0,98,0.00,,,-99.99,0.000000,,2013-09-23 02:11:00,
2013-09-22 22:22:00,77.0,76.0,-100.00,SE,127,1.0,-999.0,98,0.03,,,-99.99,0.000000,,2013-09-23 02:22:00,
2013-09-22 22:42:00,77.0,76.0,-100.00,SE,127,1.0,-999.0,98,0.03,,,-99.99,0.000000,,2013-09-23 02:42:00,
2013-09-22 22:52:00,77.0,76.0,-100.00,SE,131,1.0,-999.0,98,0.00,,,-99.99,0.000000,,2013-09-23 02:52:00,
2013-09-22 23:12:00,76.0,76.0,-100.00,ESE,110,1.0,-999.0,98,0.00,,,-99.99,0.000000,,2013-09-23 03:12:00,
2013-09-22 23:23:00,76.0,76.0,-100.00,East,93,2.0,-999.0,98,0.00,,,-99.99,0.000000,,2013-09-23 03:23:00,
2013-09-22 23:44:00,76.0,76.0,-100.00,SE,124,2.0,-999.0,99,0.00,,,-99.99,0.000000,,2013-09-23 03:44:00,
2013-09-22 23:54:00,76.0,76.0,-100.00,ESE,106,1.0,-999.0,99,0.00,,,-99.99,0.000000,,2013-09-23 03:54:00,